sat.trackr.live / text

‹ back to catalog

STARLINK-31884

NORAD 59676 · 2024-084Y

PAYLOAD ACTIVE UNKNOWN

§ Identity

Operator
Country
US
Launch date
2024-05-06
Launch site
AFETR
Launch vehicle
Mass (kg)
RCS (m²)

Purposes: comms

External: N2YO · Heavens-Above · Gunter

§ Orbital elements

Epoch: 2026-05-24T20:46:21.828288Z

Period
94.27 min
Inclination
43.0005°
Eccentricity
0.0001750
Mean motion
15.27584356 rev/d
Perigee alt
481.8 km
Apogee alt
484.2 km
Semi-major
6,861.2 km
B*
3.7512e-4
RAAN
331.5824°
Arg perigee
278.3746°
Mean anomaly
81.6908°
Rev number
11,602

§ Raw data

STARLINK-318841 59676U 24084Y   26144.86553042  .00010076  00000+0  37512-3 0  99952 59676  43.0005 331.5824 0001750 278.3746  81.6908 15.27584356116021

JSON: /api/v1/satellites/59676 · /tle

For live sub-satellite position, see the globe view (requires WebGL).

§ Visibility from observer

Set your observer location to see the next 7 days of passes ≥ 10°. The values pass through the URL so the page stays shareable.

No JS? Fill the form by hand. The geolocation button needs JavaScript.